Tracking 19794 objects as of 21-Jul-2019
HD Live streaming from Space Station
objects crossing your sky now

ASTRA 1G

Track ASTRA 1G now!
ASTRA 1G is classified as:


NORAD ID: 25071
Int'l Code: 1997-076A
Perigee: 35,779.8 km
Apogee: 35,807.1 km
Inclination: 3.9 °
Period: 1,436.1 minutes
Semi major axis: 42164 km
RCS: 1.138 m2 (large)
Launch date: December 2, 1997
Source: SOCIETE EUROPEENNE DES SATELLITES (SES)
Launch site: TYURATAM MISSILE AND SPACE COMPLEX (TTMTR)

Direct-to-home tv; multimedia; 32 Ku-band transponders; Europe
aabbcc
Your satellite tracking list
Your tracking list is empty




NASA's NSSDC Master Catalog

Two Line Element Set (TLE):
1 25071U 97076A   19201.22965799  .00000059  00000-0  00000+0 0  9999
2 25071   3.9011  75.0809 0003243  35.7562 326.7447  1.00272890 79233
Source of the keplerian elements: AFSPC